CW4438 Weather Reports


Display with metric or nautical units.
time (UTC)temp
F
wind
direction
speed
MPH
gust
MPH
rain 1hr
in
rain 24hr
in
rain mn
in
humidity
%
barometer
mb
20260505041739 66 123 0.0 1.0 0.00 0.00 0.00 73 1006.2
20260505041235 66 130 0.0 2.0 0.00 0.00 0.00 73 1006.2
20260505040736 66 127 1.0 2.0 0.00 0.00 0.00 73 1006.2
20260505040235 66 160 1.0 2.0 0.00 0.00 0.00 73 1006.2
20260505035735 66 185 1.0 3.0 0.00 0.00 0.00 73 1006.2
20260505035237 66 188 2.0 4.0 0.00 0.00 0.00 73 1006.3
20260505034733 66 199 1.0 4.0 0.00 0.00 0.00 73 1006.4
20260505034233 66 187 1.0 5.0 0.00 0.00 0.00 73 1006.5
20260505033733 66 204 2.0 5.0 0.00 0.00 0.00 73 1006.6
20260505033233 66 206 1.0 4.0 0.00 0.00 0.00 73 1006.5
20260505032733 66 215 1.0 3.0 0.00 0.00 0.00 73 1006.6
20260505032234 66 215 1.0 3.0 0.00 0.00 0.00 73 1006.5
20260505031733 66 146 1.0 3.0 0.00 0.00 0.00 73 1006.6
20260505031230 66 194 1.0 3.0 0.00 0.00 0.00 73 1006.6
20260505030729 66 194 1.0 3.0 0.00 0.00 0.00 73 1006.5
20260505030227 66 178 0.0 2.0 0.00 0.00 0.00 73 1006.7
20260505025719 66 184 1.0 3.0 0.00 0.00 0.00 73 1006.6
20260505025219 66 142 1.0 3.0 0.00 0.00 0.00 73 1006.7
20260505024719 66 207 1.0 3.0 0.00 0.00 0.00 73 1006.6
20260505024220 66 134 0.0 2.0 0.00 0.00 0.00 72 1006.6
20260505023719 66 173 0.0 1.0 0.00 0.00 0.00 71 1006.6
20260505023219 67 156 0.0 1.0 0.00 0.00 0.00 71 1006.5
20260505022719 67 156 0.0 1.0 0.00 0.00 0.00 71 1006.5
20260505022219 67 144 0.0 1.0 0.00 0.00 0.00 70 1006.5
20260505021719 67 144 0.0 1.0 0.00 0.00 0.00 70 1006.5
20260505021217 68 144 0.0 1.0 0.00 0.00 0.00 68 1006.3
20260505020215 68 144 0.0 1.0 0.00 0.00 0.00 67 1006.2
20260505015715 68 145 0.0 2.0 0.00 0.00 0.00 67 1006.1
20260505015215 69 144 0.0 2.0 0.00 0.00 0.00 67 1006.0
20260505014715 69 179 0.0 1.0 0.00 0.00 0.00 65 1006.0
20260505014209 69 173 0.0 2.0 0.00 0.00 0.00 65 1005.9
20260505013707 69 207 1.0 2.0 0.00 0.00 0.00 65 1006.0
20260505013207 70 195 0.0 2.0 0.00 0.00 0.00 64 1005.9
20260505012705 70 196 0.0 2.0 0.00 0.00 0.00 63 1005.9
20260505012203 70 196 0.0 1.0 0.00 0.00 0.00 63 1005.7
20260505011703 71 197 0.0 2.0 0.00 0.00 0.00 63 1005.8
20260505011203 71 197 1.0 3.0 0.00 0.00 0.00 62 1005.7
20260505010702 71 197 2.0 5.0 0.00 0.00 0.00 62 1005.4
20260505010203 71 198 2.0 5.0 0.00 0.00 0.00 61 1005.3
20260505005702 71 219 3.0 6.0 0.00 0.00 0.00 61 1005.3
20260505005203 71 192 3.0 6.0 0.00 0.00 0.00 60 1005.3
20260505004702 72 191 3.0 7.0 0.00 0.00 0.00 60 1005.3
20260505004203 72 214 3.0 7.0 0.00 0.00 0.00 61 1005.3
20260505003203 72 227 2.0 5.0 0.00 0.00 0.00 60 1005.3
20260505002702 73 182 3.0 6.0 0.00 0.00 0.00 60 1005.4
20260505002203 73 86 3.0 11.0 0.00 0.00 0.00 59 1005.4
20260505001703 73 140 3.0 11.0 0.00 0.00 0.00 59 1005.4
20260505001203 73 117 3.0 7.0 0.00 0.00 0.00 58 1005.4
20260505000703 74 119 4.0 8.0 0.00 0.00 0.00 57 1005.4
20260505000204 74 120 4.0 14.0 0.00 0.00 0.00 56 1005.4
20260504235703 74 107 4.0 14.0 0.00 0.00 0.00 56 1005.2
20260504234703 74 150 3.0 9.0 0.00 0.00 0.00 57 1005.3
20260504234202 74 130 3.0 10.0 0.00 0.00 0.00 56 1005.3
20260504233703 75 105 3.0 12.0 0.00 0.00 0.00 57 1005.2
20260504233202 75 102 3.0 12.0 0.00 0.00 0.00 55 1005.2
20260504232703 75 66 4.0 11.0 0.00 0.00 0.00 55 1005.2
20260504231702 76 116 4.0 10.0 0.00 0.00 0.00 53 1005.2
20260504230702 76 126 3.0 13.0 0.00 0.00 0.00 56 1005.2
20260504225702 76 115 4.0 12.0 0.00 0.00 0.00 54 1005.1
20260504225203 76 117 4.0 13.0 0.00 0.00 0.00 55 1005.2
20260504224702 76 165 5.0 13.0 0.00 0.00 0.00 53 1005.2
20260504224202 77 113 5.0 12.0 0.00 0.00 0.00 51 1005.1
20260504223704 77 159 4.0 12.0 0.00 0.00 0.00 53 1005.2
20260504223202 77 182 4.0 11.0 0.00 0.00 0.00 53 1005.2
20260504222703 78 136 3.0 8.0 0.00 0.00 0.00 52 1005.1
20260504222201 78 175 3.0 9.0 0.00 0.00 0.00 55 1005.3
20260504221701 78 123 3.0 9.0 0.00 0.00 0.00 52 1005.3
20260504221201 78 138 4.0 8.0 0.00 0.00 0.00 51 1005.3
20260504220701 78 96 4.0 8.0 0.00 0.00 0.00 53 1005.3
20260504220201 78 92 4.0 10.0 0.00 0.00 0.00 50 1005.3
20260504215702 78 139 4.0 10.0 0.00 0.00 0.00 49 1005.5
20260504215155 79 136 5.0 13.0 0.00 0.00 0.00 52 1005.7
20260504214645 79 128 5.0 13.0 0.00 0.00 0.00 51 1005.8
20260504214139 79 65 4.0 11.0 0.00 0.00 0.00 50 1005.7
20260504213630 79 92 3.0 8.0 0.00 0.00 0.00 50 1005.7
20260504213129 79 156 3.0 8.0 0.00 0.00 0.00 54 1005.8
20260504211629 79 150 4.0 15.0 0.00 0.00 0.00 52 1006.0
20260504211129 79 218 5.0 15.0 0.00 0.00 0.00 51 1006.1
20260504210629 79 149 5.0 13.0 0.00 0.00 0.00 50 1006.2
20260504210129 79 184 4.0 13.0 0.00 0.00 0.00 49 1006.4
20260504205629 79 131 4.0 9.0 0.00 0.00 0.00 50 1006.3
20260504205129 79 161 4.0 10.0 0.00 0.00 0.00 53 1006.3
20260504204129 79 180 5.0 15.0 0.00 0.00 0.00 52 1006.5
20260504203629 80 195 5.0 12.0 0.00 0.00 0.00 48 1006.5
20260504202629 79 167 6.0 16.0 0.00 0.00 0.00 50 1006.6
20260504202130 79 161 6.0 14.0 0.00 0.00 0.00 49 1006.7
20260504201629 79 175 6.0 14.0 0.00 0.00 0.00 51 1006.7
20260504200629 79 149 7.0 16.0 0.00 0.00 0.00 49 1006.8
20260504200129 79 44 7.0 16.0 0.00 0.00 0.00 49 1006.8
20260504195629 79 64 6.0 16.0 0.00 0.00 0.00 52 1006.7
20260504195129 79 104 6.0 16.0 0.00 0.00 0.00 51 1006.9
20260504194629 80 169 5.0 13.0 0.00 0.00 0.00 49 1007.0
20260504193628 80 169 5.0 14.0 0.00 0.00 0.00 54 1007.0
20260504193129 79 129 6.0 15.0 0.00 0.00 0.00 53 1007.3
20260504192631 79 219 6.0 15.0 0.00 0.00 0.00 50 1007.3
20260504192131 79 150 4.0 16.0 0.00 0.00 0.00 52 1007.4
20260504191631 79 106 5.0 16.0 0.00 0.00 0.00 55 1007.3
20260504191130 79 70 6.0 18.0 0.00 0.00 0.00 50 1007.3
20260504185631 79 242 5.0 13.0 0.00 0.00 0.00 53 1007.4
20260504185130 79 134 5.0 17.0 0.00 0.00 0.00 53 1007.5
20260504184631 78 121 5.0 17.0 0.00 0.00 0.00 55 1007.5
20260504183137 78 152 5.0 16.0 0.00 0.00 0.00 53 1007.6
20260504182639 78 188 5.0 10.0 0.00 0.00 0.00 54 1007.7
20260504182133 78 190 5.0 10.0 0.00 0.00 0.00 54 1007.7
20260504181630 78 171 5.0 16.0 0.00 0.00 0.00 58 1007.9
20260504181130 78 240 6.0 16.0 0.00 0.00 0.00 53 1007.9
20260504180633 77 245 5.0 14.0 0.00 0.00 0.00 55 1008.0
20260504180131 77 179 4.0 12.0 0.00 0.00 0.00 55 1008.1
20260504175630 77 151 5.0 14.0 0.00 0.00 0.00 59 1008.1
20260504175129 77 217 5.0 14.0 0.00 0.00 0.00 53 1008.2
20260504174629 77 192 5.0 11.0 0.00 0.00 0.00 54 1008.2
20260504174129 76 269 5.0 11.0 0.00 0.00 0.00 56 1008.2
20260504173130 76 157 6.0 17.0 0.00 0.00 0.00 55 1008.5
20260504172629 76 139 5.0 10.0 0.00 0.00 0.00 55 1008.6
20260504172129 76 171 5.0 13.0 0.00 0.00 0.00 55 1008.6
20260504171629 76 96 6.0 16.0 0.00 0.00 0.00 54 1008.6
20260504171129 76 196 6.0 16.0 0.00 0.00 0.00 51 1008.6
20260504170629 76 159 5.0 15.0 0.00 0.00 0.00 53 1008.5
20260504170129 76 5 4.0 15.0 0.00 0.00 0.00 56 1008.7
20260504160129 74 165 4.0 10.0 0.00 0.00 0.00 54 1009.1
20260504151129 72 209 6.0 14.0 0.00 0.00 0.00 53 1009.3
20260504150629 71 120 5.0 19.0 0.00 0.00 0.00 56 1009.4
20260504150129 71 117 6.0 19.0 0.00 0.00 0.00 56 1009.4
20260504141129 69 111 5.0 14.0 0.00 0.00 0.00 58 1009.7
20260504140629 68 148 4.0 14.0 0.00 0.00 0.00 58 1009.9
20260504140128 68 131 4.0 11.0 0.00 0.00 0.00 59 1009.9
20260504130629 63 225 4.0 9.0 0.00 0.00 0.00 65 1010.2
20260504120128 60 185 3.0 6.0 0.00 0.00 0.00 67 1010.1
20260504110629 61 197 3.0 7.0 0.00 0.00 0.00 64 1010.0
20260504110128 61 265 3.0 7.0 0.00 0.00 0.00 64 1010.0
20260504100126 62 222 3.0 7.0 0.00 0.00 0.00 62 1010.3
20260504081602 64 266 4.0 10.0 0.00 0.00 0.00 58 1010.7
20260504081102 64 144 3.0 10.0 0.00 0.00 0.00 58 1010.9
20260504080602 64 247 3.0 7.0 0.00 0.00 0.00 58 1010.9
20260504050531 67 186 3.0 6.0 0.00 0.00 0.00 56 1012.3
20260504045530 67 186 3.0 6.0 0.00 0.00 0.00 56 1012.4
20260504045031 67 230 3.0 6.0 0.00 0.00 0.00 56 1012.5
20260504044530 67 198 3.0 10.0 0.00 0.00 0.00 56 1012.4